Meteorología y climatología de Navarra
Datos de la estación - Meteo Navarra

Estación de Goizueta GN

Altitud 142 m.


Datos desde el 26/03/2020 hasta el 27/03/2020 en horario solar
Los datos son PROVISIONALES

Anterior Página 1 de 1 Siguiente Descargar: Formato para Excel 2000 o superior   Formato csv   Formato para OpenOffice Calc
Fecha Temperatura Humedad relativa Radiación global Insolación Precipitación Vel. viento 10 m Vel. viento 10 m Dir. viento 10 m
ºC % W/m² s l/m² m/s km/h º
26/03/2020 0:00 8.1 81 - - - - 0.0 - - - - - -
26/03/2020 0:10 8.1 81 - - - - 0.0 - - - - - -
26/03/2020 0:20 8.2 81 - - - - 0.0 - - - - - -
26/03/2020 0:30 8.0 87 - - - - 0.3 - - - - - -
26/03/2020 0:40 7.6 92 - - - - 0.1 - - - - - -
26/03/2020 0:50 7.5 94 - - - - 0.0 - - - - - -
26/03/2020 1:00 7.4 95 - - - - 0.0 - - - - - -
26/03/2020 1:10 7.5 96 - - - - 0.0 - - - - - -
26/03/2020 1:20 7.4 95 - - - - 0.0 - - - - - -
26/03/2020 1:30 7.4 95 - - - - 0.0 - - - - - -
26/03/2020 1:40 7.5 95 - - - - 0.0 - - - - - -
26/03/2020 1:50 7.5 96 - - - - 0.0 - - - - - -
26/03/2020 2:00 7.6 96 - - - - 0.0 - - - - - -
26/03/2020 2:10 7.7 96 - - - - 0.0 - - - - - -
26/03/2020 2:20 7.7 95 - - - - 0.0 - - - - - -
26/03/2020 2:30 8.1 95 - - - - 0.0 - - - - - -
26/03/2020 2:40 8.6 92 - - - - 0.0 - - - - - -
26/03/2020 2:50 8.5 94 - - - - 0.0 - - - - - -
26/03/2020 3:00 8.4 95 - - - - 0.0 - - - - - -
26/03/2020 3:10 8.5 95 - - - - 0.0 - - - - - -
26/03/2020 3:20 8.5 96 - - - - 0.0 - - - - - -
26/03/2020 3:30 8.6 95 - - - - 0.0 - - - - - -
26/03/2020 3:40 8.6 95 - - - - 0.0 - - - - - -
26/03/2020 3:50 8.6 95 - - - - 0.0 - - - - - -
26/03/2020 4:00 8.6 95 - - - - 0.0 - - - - - -
26/03/2020 4:10 8.6 94 - - - - 0.0 - - - - - -
26/03/2020 4:20 8.7 89 - - - - 0.0 - - - - - -
26/03/2020 4:30 8.6 90 - - - - 0.0 - - - - - -
26/03/2020 4:40 8.5 88 - - - - 0.0 - - - - - -
26/03/2020 4:50 9.1 71 - - - - 0.0 - - - - - -
26/03/2020 5:00 9.9 65 - - - - 0.0 - - - - - -
26/03/2020 5:10 10.0 63 - - - - 0.0 - - - - - -
26/03/2020 5:20 9.9 64 - - - - 0.0 - - - - - -
26/03/2020 5:30 9.8 66 - - - - 0.0 - - - - - -
26/03/2020 5:40 9.8 65 - - - - 0.0 - - - - - -
26/03/2020 5:50 9.5 67 - - - - 0.0 - - - - - -
26/03/2020 6:00 9.6 69 - - - - 0.0 - - - - - -
26/03/2020 6:10 9.6 67 - - - - 0.0 - - - - - -
26/03/2020 6:20 9.6 68 - - - - 0.0 - - - - - -
26/03/2020 6:30 9.4 67 - - - - 0.0 - - - - - -
26/03/2020 6:40 9.7 65 - - - - 0.0 - - - - - -
26/03/2020 6:50 9.7 65 - - - - 0.0 - - - - - -
26/03/2020 7:00 9.7 62 - - - - 0.0 - - - - - -
26/03/2020 7:10 9.6 63 - - - - 0.0 - - - - - -
26/03/2020 7:20 9.7 63 - - - - 0.0 - - - - - -
26/03/2020 7:30 9.9 63 - - - - 0.0 - - - - - -
26/03/2020 7:40 9.9 63 - - - - 0.0 - - - - - -
26/03/2020 7:50 10.0 60 - - - - 0.0 - - - - - -
26/03/2020 8:00 10.1 57 - - - - 0.0 - - - - - -
26/03/2020 8:10 10.0 55 - - - - 0.0 - - - - - -
26/03/2020 8:20 9.9 55 - - - - 0.0 - - - - - -
26/03/2020 8:30 9.8 59 - - - - 0.0 - - - - - -
26/03/2020 8:40 10.1 61 - - - - 0.0 - - - - - -
26/03/2020 8:50 9.8 61 - - - - 0.0 - - - - - -
26/03/2020 9:00 9.8 60 - - - - 0.0 - - - - - -
26/03/2020 9:10 9.7 59 - - - - 0.0 - - - - - -
26/03/2020 9:20 10.0 58 - - - - 0.0 - - - - - -
26/03/2020 9:30 10.0 58 - - - - 0.0 - - - - - -
26/03/2020 9:40 9.9 57 - - - - 0.0 - - - - - -
26/03/2020 9:50 10.2 57 - - - - 0.0 - - - - - -
26/03/2020 10:00 10.0 57 - - - - 0.0 - - - - - -
26/03/2020 10:10 9.8 58 - - - - 0.0 - - - - - -
26/03/2020 10:20 9.9 55 - - - - 0.0 - - - - - -
26/03/2020 10:30 10.0 54 - - - - 0.0 - - - - - -
26/03/2020 10:40 10.1 51 - - - - 0.0 - - - - - -
26/03/2020 10:50 10.0 49 - - - - 0.0 - - - - - -
26/03/2020 11:00 10.8 46 - - - - 0.0 - - - - - -
26/03/2020 11:10 10.7 44 - - - - 0.0 - - - - - -
26/03/2020 11:20 10.4 43 - - - - 0.0 - - - - - -
26/03/2020 11:30 10.6 41 - - - - 0.0 - - - - - -
26/03/2020 11:40 10.8 41 - - - - 0.0 - - - - - -
26/03/2020 11:50 11.1 41 - - - - 0.0 - - - - - -
26/03/2020 12:00 11.3 41 - - - - 0.0 - - - - - -
26/03/2020 12:10 11.3 41 - - - - 0.0 - - - - - -
26/03/2020 12:20 11.4 38 - - - - 0.0 - - - - - -
26/03/2020 12:30 11.3 39 - - - - 0.0 - - - - - -
26/03/2020 12:40 11.1 38 - - - - 0.0 - - - - - -
26/03/2020 12:50 11.5 40 - - - - 0.0 - - - - - -
26/03/2020 13:00 11.6 39 - - - - 0.0 - - - - - -
26/03/2020 13:10 11.2 38 - - - - 0.0 - - - - - -
26/03/2020 13:20 11.3 38 - - - - 0.0 - - - - - -
26/03/2020 13:30 11.2 37 - - - - 0.0 - - - - - -
26/03/2020 13:40 11.3 38 - - - - 0.0 - - - - - -
26/03/2020 13:50 11.4 40 - - - - 0.0 - - - - - -
26/03/2020 14:00 11.6 39 - - - - 0.0 - - - - - -
26/03/2020 14:10 11.3 40 - - - - 0.0 - - - - - -
26/03/2020 14:20 11.4 40 - - - - 0.0 - - - - - -
26/03/2020 14:30 11.2 38 - - - - 0.0 - - - - - -
26/03/2020 14:40 11.2 41 - - - - 0.0 - - - - - -
26/03/2020 14:50 11.7 40 - - - - 0.0 - - - - - -
26/03/2020 15:00 11.9 42 - - - - 0.0 - - - - - -
26/03/2020 15:10 11.9 40 - - - - 0.0 - - - - - -
26/03/2020 15:20 12.0 40 - - - - 0.0 - - - - - -
26/03/2020 15:30 11.3 41 - - - - 0.0 - - - - - -
26/03/2020 15:40 10.8 42 - - - - 0.0 - - - - - -
26/03/2020 15:50 10.8 42 - - - - 0.0 - - - - - -
26/03/2020 16:00 10.3 43 - - - - 0.0 - - - - - -
26/03/2020 16:10 10.4 43 - - - - 0.0 - - - - - -
26/03/2020 16:20 10.2 45 - - - - 0.0 - - - - - -
26/03/2020 16:30 10.2 46 - - - - 0.0 - - - - - -
26/03/2020 16:40 10.0 46 - - - - 0.0 - - - - - -
26/03/2020 16:50 10.0 46 - - - - 0.0 - - - - - -
26/03/2020 17:00 9.6 47 - - - - 0.0 - - - - - -
26/03/2020 17:10 9.4 49 - - - - 0.0 - - - - - -
26/03/2020 17:20 9.1 49 - - - - 0.0 - - - - - -
26/03/2020 17:30 9.0 50 - - - - 0.0 - - - - - -
26/03/2020 17:40 8.7 52 - - - - 0.0 - - - - - -
26/03/2020 17:50 8.7 51 - - - - 0.0 - - - - - -
26/03/2020 18:00 8.3 58 - - - - 0.0 - - - - - -
26/03/2020 18:10 7.6 62 - - - - 0.0 - - - - - -
26/03/2020 18:20 7.2 64 - - - - 0.0 - - - - - -
26/03/2020 18:30 6.5 67 - - - - 0.0 - - - - - -
26/03/2020 18:40 5.9 70 - - - - 0.0 - - - - - -
26/03/2020 18:50 5.4 72 - - - - 0.0 - - - - - -
26/03/2020 19:00 5.1 73 - - - - 0.0 - - - - - -
26/03/2020 19:10 4.6 75 - - - - 0.0 - - - - - -
26/03/2020 19:20 4.5 77 - - - - 0.0 - - - - - -
26/03/2020 19:30 4.2 78 - - - - 0.0 - - - - - -
26/03/2020 19:40 4.4 79 - - - - 0.0 - - - - - -
26/03/2020 19:50 4.6 79 - - - - 0.0 - - - - - -
26/03/2020 20:00 4.2 80 - - - - 0.0 - - - - - -
26/03/2020 20:10 3.9 81 - - - - 0.0 - - - - - -
26/03/2020 20:20 3.4 83 - - - - 0.0 - - - - - -
26/03/2020 20:30 3.1 83 - - - - 0.0 - - - - - -
26/03/2020 20:40 3.0 83 - - - - 0.0 - - - - - -
26/03/2020 20:50 2.8 85 - - - - 0.0 - - - - - -
26/03/2020 21:00 3.0 85 - - - - 0.0 - - - - - -
26/03/2020 21:10 3.2 85 - - - - 0.0 - - - - - -
26/03/2020 21:20 3.2 85 - - - - 0.0 - - - - - -
26/03/2020 21:30 3.2 86 - - - - 0.0 - - - - - -
26/03/2020 21:40 3.3 85 - - - - 0.0 - - - - - -
26/03/2020 21:50 3.3 86 - - - - 0.0 - - - - - -
26/03/2020 22:00 3.0 86 - - - - 0.0 - - - - - -
26/03/2020 22:10 2.5 87 - - - - 0.0 - - - - - -
26/03/2020 22:20 2.3 88 - - - - 0.0 - - - - - -
26/03/2020 22:30 1.9 89 - - - - 0.0 - - - - - -
26/03/2020 22:40 1.9 90 - - - - 0.0 - - - - - -
26/03/2020 22:50 1.8 90 - - - - 0.0 - - - - - -
26/03/2020 23:00 1.6 90 - - - - 0.0 - - - - - -
26/03/2020 23:10 1.4 91 - - - - 0.0 - - - - - -
26/03/2020 23:20 1.3 91 - - - - 0.0 - - - - - -
26/03/2020 23:30 1.0 92 - - - - 0.0 - - - - - -
26/03/2020 23:40 1.0 92 - - - - 0.0 - - - - - -
26/03/2020 23:50 1.0 93 - - - - 0.0 - - - - - -
Anterior Página 1 de 1 Siguiente

NOTA: Tipo de datos según el color:
   - Valores diarios o 10 minutos correctos
   - Valores diarios calculados a partir de un número de datos 10 minutos menor que 144 y mayor que 120, o de un número de datos semihorarios menor que 48 y mayor que 40 (caso de las estaciones de INTIA y del Ministerio)
   - Valores diez minutos estimados


Contacto        Enlaces        Aviso legal